Alma, GA

10:42 PM EDT on April 22, 2018 (GMT -0400)
Bacon County

Weather History for KAMG - September, 2012

Change the Weather History Date:

Sunday, September 30, 2012

  Actual Average Record
Temperature  
Mean Temperature 79 °F 73 °F  
Max Temperature 86 °F 84 °F 94 °F (1959)
Min Temperature 71 °F 63 °F 40 °F (1967)
Degree Days  
Heating Degree Days 0 0  
Month to date heating degree days 0 0  
Since 1 July heating degree days 0 2  
Cooling Degree Days 14 9  
Month to date cooling degree days 380 363  
Year to date cooling degree days 2487 2270  
Growing Degree Days 28 (Base 50)    
Moisture  
Dew Point 70 °F    
Average Humidity 77    
Maximum Humidity 93    
Minimum Humidity 61    
Precipitation  
Precipitation 0.14 in 0.11 in 2.51 in (1998)
Month to date precipitation 2.19 3.64  
Year to date precipitation 32.98 37.85  
Snow  
Snow 0.00 in 0.00 in 0.00 in ()
Month to date snowfall 0.0 0.0  
Since 1 July snowfall 0.0 0.0  
Since 1 September snowfall 0.0 0.0  
Snow Depth 0.00 in    
Sea Level Pressure  
Sea Level Pressure 29.84 in    
Wind  
Wind Speed 1 mph (SSE)    
Max Wind Speed 13 mph    
Max Gust Speed 26 mph    
Visibility 7 miles    
Events Rain , Thunderstorm    
T = Trace of Precipitation, MM = Missing Value Source: NWS Daily Summary

Daily Weather History Graph

Daily Weather History Graph

Search for Another Location

Airport or City:

Astronomy

Sep. 30, 2012 Rise Set
Actual Time 7:23 AM EDT 7:15 PM EDT
Civil Twilight 6:59 AM EDT 7:39 PM EDT
Nautical Twilight 6:31 AM EDT 8:08 PM EDT
Astronomical Twilight 6:02 AM EDT 8:36 PM EDT
Moon 7:25 PM EDT (9/30) 7:47 AM EDT (9/30)
Length of Visible Light 12h 40m
Length of Day
11h 52m
Full, 100% of the Moon is Illuminated
Sep 30
Full
Oct 8
Last Quarter
Oct 15
New
Oct 21
First Quarter
Oct 29
Full

Hourly Weather History & Observations

Time (EDT) Temp. Heat Index Dew Point Humidity Pressure Visibility Wind Dir Wind Speed Gust Speed Precip Events Conditions
12:53 AM 72.0 °F - 70.0 °F 93% 29.88 in 7.0 mi SSW 4.6 mph - N/A   Partly Cloudy
1:53 AM 71.1 °F - 70.0 °F 96% 29.88 in 6.0 mi SSW 3.5 mph - N/A   Partly Cloudy
2:53 AM 71.1 °F - 69.1 °F 93% 29.87 in 6.0 mi SSW 3.5 mph - N/A   Mostly Cloudy
3:53 AM 72.0 °F - 70.0 °F 93% 29.87 in 5.0 mi Calm Calm - N/A   Partly Cloudy
4:53 AM 72.0 °F - 70.0 °F 93% 29.86 in 4.0 mi Calm Calm - N/A   Overcast
6:48 AM 71.6 °F - 69.8 °F 94% 29.86 in 2.5 mi Calm Calm - N/A   Clear
6:53 AM 71.1 °F - 69.1 °F 93% 29.86 in 2.5 mi Calm Calm - N/A   Clear
7:15 AM 71.6 °F - 69.8 °F 94% 29.86 in 4.0 mi Calm Calm - N/A   Partly Cloudy
7:53 AM 71.1 °F - 69.1 °F 93% 29.87 in 2.5 mi Calm Calm - N/A   Partly Cloudy
8:29 AM 71.6 °F - 69.8 °F 94% 29.88 in 3.0 mi Calm Calm - N/A   Partly Cloudy
8:53 AM 73.0 °F - 71.1 °F 93% 29.89 in 4.0 mi Calm Calm - N/A   Mostly Cloudy
10:26 AM 75.2 °F - 71.6 °F 89% 29.89 in 9.0 mi Calm Calm - N/A   Partly Cloudy
11:53 AM 79.0 °F - 71.1 °F 77% 29.87 in 10.0 mi Calm Calm - N/A   Scattered Clouds
12:53 PM 81.0 °F 83.8 °F 68.0 °F 65% 29.86 in 10.0 mi Calm Calm - N/A   Mostly Cloudy
1:53 PM 82.0 °F 84.9 °F 68.0 °F 62% 29.85 in 10.0 mi Calm Calm - N/A   Mostly Cloudy
2:53 PM 82.9 °F 86.5 °F 69.1 °F 63% 29.82 in 10.0 mi Calm Calm - N/A   Overcast
3:53 PM 84.0 °F 87.8 °F 69.1 °F 61% 29.80 in 10.0 mi Calm Calm - N/A   Partly Cloudy
4:53 PM 82.9 °F 85.8 °F 68.0 °F 60% 29.79 in 10.0 mi East 5.8 mph - N/A   Scattered Clouds
5:53 PM 81.0 °F 84.4 °F 70.0 °F 69% 29.79 in 10.0 mi East 4.6 mph - N/A   Scattered Clouds
6:53 PM 77.0 °F - 69.1 °F 76% 29.80 in 10.0 mi SE 4.6 mph - N/A   Clear
7:06 PM 75.2 °F - 69.8 °F 83% 29.82 in 10.0 mi South 9.2 mph - N/A Thunderstorm Partly Cloudy
7:17 PM 73.4 °F - 69.8 °F 88% 29.82 in 6.0 mi SW 6.9 mph 17.3 mph 0.02 in Rain Rain
7:22 PM 73.4 °F - 69.8 °F 88% 29.82 in 2.5 mi WSW 5.8 mph - 0.06 in Rain Heavy Rain
7:31 PM 71.6 °F - 69.8 °F 94% 29.81 in 1.8 mi Calm Calm - 0.11 in Rain Heavy Rain
7:35 PM 71.6 °F - 69.8 °F 94% 29.81 in 3.0 mi Calm Calm - 0.12 in Rain Rain
7:53 PM 72.0 °F - 70.0 °F 93% 29.80 in 8.0 mi ENE 3.5 mph - 0.14 in Rain Light Rain
8:53 PM 73.0 °F - 71.1 °F 93% 29.80 in 9.0 mi Calm Calm - 0.00 in   Clear
9:53 PM 73.0 °F - 71.1 °F 93% 29.82 in 8.0 mi ESE 3.5 mph - N/A   Mostly Cloudy
10:53 PM 72.0 °F - 70.0 °F 93% 29.82 in 8.0 mi Calm Calm - N/A   Clear
11:53 PM 72.0 °F - 70.0 °F 93% 29.82 in 8.0 mi Calm Calm - N/A   Clear